Date String (YYYY-MM-DD hh:mm:ss) UTC,Instrument flags,absolute air pressure of the measurement (hPa),sample flow rate (lpm),inlet stack bypass flow (lpm),air temperature of the measurement (°C),ambient temperature measured by the external sensor (°C),aerosol sample conditioner tube jacket temperature (°C),OPC LED temperature (°C),internal box temperature (°C),relative humidity of the measurement (%),span deviation,mass concentration of particles derived from Lorenz-Mie calculation of OPC scattering (μg/m³),mass concentration of particles derived from Lorenz-Mie calculation of OPC scattering (μg/m³),mass concentration of particles derived from Lorenz-Mie calculation of OPC scattering (μg/m³)
DateTimeUTC,F1_M11,P_M11,Q1_M11,Q2_M11,T1_M11,T2_M11,T3_M11,T4_M11,T5_M11,U1_M11,ZSPAN_M11,X0_M11,X2_M11,X1_M11
2024-05-09 04:00:00,SystemResetWarning,0826.4,4.98,000.00,025.4,024.6,000.0,033.7,027.1,009.2,0000.0,0000.94,0000.51,0000.31
2024-05-09 04:01:00,SystemResetWarning,0826.4,4.98,000.00,025.4,024.6,000.0,033.7,027.1,009.2,0000.0,0000.99,0000.52,0000.30
2024-05-09 04:02:00,SystemResetWarning,0826.4,5.00,000.00,025.4,024.6,000.0,033.7,027.1,009.3,0000.0,0001.11,0000.55,0000.30
2024-05-09 04:03:00,SystemResetWarning,0826.4,5.01,000.00,025.4,024.6,000.0,033.7,027.1,009.3,0000.0,0001.20,0000.56,0000.30
2024-05-09 04:04:00,SystemResetWarning,0826.4,5.00,000.00,025.4,024.6,000.0,033.7,027.1,009.4,0000.0,0001.21,0000.57,0000.31
2024-05-09 04:05:00,SystemResetWarning,0826.4,4.99,000.00,025.4,024.6,000.0,033.6,027.1,009.4,0000.0,0001.22,0000.58,0000.31
2024-05-09 04:06:00,SystemResetWarning,0826.4,5.00,000.00,025.4,024.6,000.0,033.6,027.1,009.4,0000.0,0001.14,0000.54,0000.31
2024-05-09 04:07:00,SystemResetWarning,0826.4,5.01,000.00,025.4,024.6,000.0,033.6,027.1,009.4,0000.0,0001.10,0000.53,0000.31
2024-05-09 04:08:00,SystemResetWarning,0826.4,5.01,000.00,025.4,024.6,000.0,033.6,027.1,009.4,0000.0,0001.08,0000.55,0000.31
2024-05-09 04:09:00,SystemResetWarning,0826.4,5.00,000.00,025.4,024.5,000.0,033.6,027.1,009.4,0000.0,0001.04,0000.54,0000.31
2024-05-09 04:10:00,SystemResetWarning,0826.4,4.99,000.00,025.3,024.5,000.0,033.6,027.1,009.4,0000.0,0001.07,0000.56,0000.32
2024-05-09 04:11:00,SystemResetWarning,0826.4,5.00,000.00,025.3,024.5,000.0,033.6,027.1,009.3,0000.0,0001.13,0000.58,0000.32
2024-05-09 04:12:00,SystemResetWarning,0826.4,5.01,000.00,025.3,024.5,000.0,033.6,027.0,009.4,0000.0,0001.13,0000.59,0000.32
2024-05-09 04:13:00,SystemResetWarning,0826.4,5.01,000.00,025.3,024.5,000.0,033.6,027.0,009.4,0000.0,0001.02,0000.57,0000.32
2024-05-09 04:14:00,SystemResetWarning,0826.4,5.00,000.00,025.3,024.5,000.0,033.6,027.0,009.4,0000.0,0000.96,0000.57,0000.32
2024-05-09 04:15:00,SystemResetWarning,0826.4,4.99,000.00,025.3,024.5,000.0,033.6,027.0,009.4,0000.0,0000.94,0000.56,0000.32
2024-05-09 04:16:00,SystemResetWarning,0826.4,4.99,000.00,025.3,024.5,000.0,033.6,027.0,009.4,0000.0,0000.90,0000.54,0000.32
2024-05-09 04:17:00,SystemResetWarning,0826.4,5.00,000.00,025.3,024.5,000.0,033.5,027.0,009.5,0000.0,0000.94,0000.56,0000.32
2024-05-09 04:18:00,SystemResetWarning,0826.4,5.01,000.00,025.3,024.5,000.0,033.5,027.0,009.5,0000.0,0000.93,0000.56,0000.32
2024-05-09 04:19:00,SystemResetWarning,0826.4,5.01,000.00,025.3,024.5,000.0,033.5,027.0,009.4,0000.0,0000.93,0000.55,0000.32
2024-05-09 04:20:00,SystemResetWarning,0826.4,5.00,000.00,025.3,024.4,000.0,033.5,026.9,009.4,0000.0,0000.93,0000.53,0000.32
2024-05-09 04:21:00,SystemResetWarning,0826.4,5.00,000.00,025.3,024.4,000.0,033.5,026.9,009.5,0000.0,0000.94,0000.53,0000.32
2024-05-09 04:22:00,SystemResetWarning,0826.4,5.00,000.00,025.3,024.4,000.0,033.5,026.9,009.4,0000.0,0000.92,0000.52,0000.32
2024-05-09 04:23:00,SystemResetWarning,0826.5,5.00,000.00,025.3,024.4,000.0,033.5,026.9,009.5,0000.0,0000.94,0000.51,0000.32
2024-05-09 04:24:00,SystemResetWarning,0826.6,5.00,000.00,025.2,024.4,000.0,033.5,026.9,009.5,0000.0,0000.90,0000.50,0000.32
2024-05-09 04:25:00,SystemResetWarning,0826.6,5.00,000.00,025.2,024.4,000.0,033.5,026.9,009.5,0000.0,0000.90,0000.50,0000.31
2024-05-09 04:26:00,SystemResetWarning,0826.6,5.00,000.00,025.2,024.4,000.0,033.5,026.9,009.4,0000.0,0000.91,0000.51,0000.31
2024-05-09 04:27:00,SystemResetWarning,0826.6,5.00,000.00,025.2,024.4,000.0,033.5,026.9,009.4,0000.0,0000.85,0000.49,0000.31
2024-05-09 04:28:00,SystemResetWarning,0826.6,5.00,000.00,025.2,024.4,000.0,033.5,026.9,009.5,0000.0,0000.77,0000.45,0000.30
2024-05-09 04:29:00,SystemResetWarning,0826.6,5.00,000.00,025.2,024.4,000.0,033.5,026.8,009.5,0000.0,0000.73,0000.43,0000.30
2024-05-09 04:30:00,SystemResetWarning,0826.6,5.00,000.00,025.2,024.4,000.0,033.4,026.8,009.6,0000.0,0000.70,0000.41,0000.30
2024-05-09 04:31:00,SystemResetWarning,0826.6,5.00,000.00,025.2,024.4,000.0,033.4,026.8,009.6,0000.0,0000.71,0000.42,0000.30
2024-05-09 04:32:00,SystemResetWarning,0826.6,5.01,000.00,025.2,024.4,000.0,033.4,026.8,009.5,0000.0,0000.72,0000.43,0000.30
2024-05-09 04:33:00,SystemResetWarning,0826.6,5.00,000.00,025.2,024.4,000.0,033.4,026.8,009.6,0000.0,0000.72,0000.42,0000.30
2024-05-09 04:34:00,SystemResetWarning,0826.6,5.00,000.00,025.2,024.4,000.0,033.4,026.8,009.6,0000.0,0000.71,0000.42,0000.31
2024-05-09 04:35:00,SystemResetWarning,0826.6,4.99,000.00,025.2,024.4,000.0,033.4,026.9,009.6,0000.0,0000.77,0000.44,0000.31
2024-05-09 04:36:00,SystemResetWarning,0826.6,4.99,000.00,025.2,024.4,000.0,033.4,026.9,009.6,0000.0,0000.76,0000.43,0000.31
2024-05-09 04:37:00,SystemResetWarning,0826.6,5.00,000.00,025.2,024.4,000.0,033.4,026.8,009.6,0000.0,0000.72,0000.41,0000.31
2024-05-09 04:38:00,SystemResetWarning,0826.6,5.00,000.00,025.2,024.3,000.0,033.4,026.7,009.6,0000.0,0000.72,0000.41,0000.31
2024-05-09 04:39:00,SystemResetWarning,0826.6,4.99,000.00,025.2,024.3,000.0,033.4,026.8,009.6,0000.0,0000.76,0000.43,0000.32
2024-05-09 04:40:00,SystemResetWarning,0826.6,5.02,000.00,025.2,024.3,000.0,033.4,026.8,009.6,0000.0,0000.79,0000.44,0000.32
2024-05-09 04:41:00,SystemResetWarning,0826.6,5.00,000.00,025.1,024.3,000.0,033.4,026.8,009.6,0000.0,0000.86,0000.44,0000.32
2024-05-09 04:42:00,SystemResetWarning,0826.6,4.99,000.00,025.1,024.3,000.0,033.4,026.8,009.5,0000.0,0000.93,0000.44,0000.32
2024-05-09 04:43:00,SystemResetWarning,0826.6,4.99,000.00,025.1,024.3,000.0,033.4,026.8,009.5,0000.0,0000.95,0000.43,0000.31
2024-05-09 04:44:00,SystemResetWarning,0826.6,5.00,000.00,025.1,024.3,000.0,033.3,026.8,009.6,0000.0,0000.90,0000.41,0000.31
2024-05-09 04:45:00,SystemResetWarning,0826.6,5.01,000.00,025.1,024.3,000.0,033.3,026.8,009.6,0000.0,0000.85,0000.40,0000.31
2024-05-09 04:46:00,SystemResetWarning,0826.6,5.01,000.00,025.1,024.3,000.0,033.3,026.8,009.5,0000.0,0000.84,0000.40,0000.31
2024-05-09 04:47:00,SystemResetWarning,0826.6,4.99,000.00,025.1,024.3,000.0,033.3,026.8,009.6,0000.0,0000.87,0000.42,0000.31
2024-05-09 04:48:00,SystemResetWarning,0826.6,4.99,000.00,025.1,024.3,000.0,033.3,026.8,009.6,0000.0,0000.92,0000.46,0000.31
2024-05-09 04:49:00,SystemResetWarning,0826.6,5.00,000.00,025.1,024.3,000.0,033.3,026.7,009.6,0000.0,0000.97,0000.47,0000.30
2024-05-09 04:50:00,SystemResetWarning,0826.6,5.01,000.00,025.1,024.3,000.0,033.3,026.7,009.6,0000.0,0000.97,0000.47,0000.30
2024-05-09 04:51:00,SystemResetWarning,0826.6,5.01,000.00,025.1,024.3,000.0,033.3,026.7,009.6,0000.0,0001.06,0000.51,0000.31
2024-05-09 04:52:00,SystemResetWarning,0826.6,4.99,000.00,025.1,024.3,000.0,033.3,026.7,009.6,0000.0,0001.13,0000.52,0000.32
2024-05-09 04:53:00,SystemResetWarning,0826.5,5.00,000.00,025.1,024.2,000.0,033.3,026.7,009.6,0000.0,0001.09,0000.53,0000.31
2024-05-09 04:54:00,SystemResetWarning,0826.5,4.99,000.00,025.1,024.2,000.0,033.3,026.8,009.6,0000.0,0001.09,0000.54,0000.31
2024-05-09 04:55:00,SystemResetWarning,0826.6,5.00,000.00,025.1,024.3,000.0,033.3,026.8,009.6,0000.0,0001.13,0000.55,0000.31
2024-05-09 04:56:00,SystemResetWarning,0826.6,5.01,000.00,025.1,024.2,000.0,033.3,026.8,009.6,0000.0,0001.25,0000.57,0000.30
2024-05-09 04:57:00,SystemResetWarning,0826.5,5.01,000.00,025.0,024.2,000.0,033.3,026.7,009.6,0000.0,0001.26,0000.56,0000.30
2024-05-09 04:58:00,SystemResetWarning,0826.5,4.99,000.00,025.0,024.2,000.0,033.3,026.7,009.6,0000.0,0001.26,0000.56,0000.30
2024-05-09 04:59:00,SystemResetWarning,0826.5,4.99,000.00,025.0,024.2,000.0,033.3,026.7,009.6,0000.0,0001.22,0000.54,0000.30
